Home   Weather   Basel   Past weeks

Flag for Switzerland Past Weather in Basel, Basel-Stadt, Switzerland — Yesterday and Last 2 Weeks

Now
53 °F

Cool.


Feels Like: 53 °F
Forecast: 52 / 83 °F
Wind: 2 mph from Northwest

Location: Bale-Mulhouse

Current Time: May 26, 2017 at 3:49:29 am

Latest Report: May 26, 2017 at 3:00 am


Visibility: 31 mi

Pressure: 30.11 "Hg

Humidity: 88%

Dew Point: 50 °F

Location of BaselLocation

Past Weather in Basel — Graph

°F

Basel Temperature Yesterday

Maximum temperature yesterday: 75 °F (at 3:00 pm)
Minimum temperature yesterday: 55 °F (at 4:00 am)
Average temperature yesterday: 66 °F

High & Low Weather Summary for the Past Weeks

 TemperatureHumidityPressure
High83 °F (May 17, 6:00 pm)98% (May 12, 7:00 am)30.42 "Hg (May 12, 7:00 am)
Low41 °F (May 21, 6:00 am)34% (May 16, 5:00 pm)29.44 "Hg (May 11, 5:00 pm)
Average62 °F71%30.06 "Hg
* Reported May 11 2:00 am — May 26 2:00 am, Basel. Weather by CustomWeather, © 2017

Note: Actual official high and low records may vary slightly from our data, if they occured in-between our weather recording intervals... More about our weather records

Advertising

Basel Weather History for the Previous 24 Hours

Scroll right to see more
 ConditionsComfort  
Time TempWeatherWind HumidityBarometerVisibility
2:00 am
Fri, May 26
57 °FCool.2 mph76%30.11 "Hg28 mi
1:00 am59 °FCool.3 mph72%30.11 "Hg34 mi
12:00 am61 °FClear.3 mph72%30.11 "Hg22 mi
11:00 pm
Thu, May 25
64 °FClear.5 mph65%30.10 "Hg22 mi
10:00 pm67 °FMild.8 mph58%30.09 "Hg28 mi
9:00 pm68 °FPassing clouds.8 mph55%30.07 "Hg22 mi
8:00 pm72 °FPassing clouds.10 mph50%30.06 "Hg28 mi
7:00 pm74 °FScattered clouds.12 mph47%30.06 "Hg28 mi
6:00 pm75 °FScattered clouds.9 mph48%30.06 "Hg28 mi
5:00 pm75 °FPartly sunny.8 mph46%30.07 "Hg28 mi
4:00 pm75 °FPartly sunny.8 mph46%30.09 "Hg28 mi
3:00 pm75 °FPartly sunny.8 mph48%30.10 "Hg28 mi
2:00 pm73 °FOvercast.7 mph47%30.12 "Hg25 mi
1:00 pm73 °FOvercast.7 mph51%30.13 "Hg25 mi
12:00 pm71 °FOvercast.7 mph50%30.14 "Hg25 mi
11:00 am71 °FOvercast.3 mph55%30.15 "Hg22 mi
10:00 am67 °FOvercast.3 mph63%30.16 "Hg22 mi
9:00 am65 °FPartly sunny.2 mph68%30.17 "Hg19 mi
8:00 am62 °FScattered clouds.1 mph74%30.17 "Hg16 mi
7:00 am57 °FScattered clouds.1 mph88%30.18 "Hg16 mi
6:00 am56 °FOvercast.2 mph89%30.18 "Hg16 mi
5:00 am56 °FOvercast.No wind88%30.18 "Hg25 mi
4:00 am55 °FPassing clouds.3 mph88%30.18 "Hg17 mi
3:00 am57 °FCool.2 mph82%30.18 "Hg25 mi
Weather by CustomWeather, © 2017

See weather overviewHow to use our weather pages